User: anonymous
Location: Brno
(49.2000°N, 16.6330°E)
Time: 09:36:24
(UTC+02:00)
Language:

Meteor 1-4 Rocket - Orbit

View from above orbital plane
View from above orbital plane
View from above satellite
View from above satellite

Ground track
Ground track

The orbit data is extracted from the following two-line orbital elements,

1 04394U 70037B   14243.74278148  .00003381  00000-0  14754-3 0  6572
2 04394 081.2458 128.3225 0048005 357.0319 003.0619 15.20797437409195
Epoch (UTC): 31 August 2014 17:49:36
Eccentricity: 0.0048005
inclination: 81.2458°
perigee height: 470 km
apogee height: 536 km
right ascension of ascending node: 128.3225°
argument of perigee: 357.0319°
revolutions per day: 15.20797437
mean anomaly at epoch: 3.0619°
orbit number at epoch: 40919

The dashed part of the orbit path shows where the satellite is in the earth's shadow,  

DLR